Location: Darlington Observatory
(36.4817°N, 105.8156°W)
Time: 12:48:55
(UTC-07:00)

Daily predictions for brighter satellites

Satellite Brightness Start Highest point End
(mag) Time Altitude Azimuth Time Altitude Azimuth Time Altitude Azimuth
Cosmos 2154 Rocket 4.1 17:09:12 10° N 17:15:27 88° W 17:21:42 10° S
Cosmos 1536 2.9 17:12:28 10° N 17:16:29 60° E 17:20:30 10° SSE
Okean 1 Rocket 3.2 17:12:47 10° N 17:17:08 78° W 17:21:27 10° S
Hubble Space Telescope 2.9 17:17:11 10° WSW 17:20:30 23° S 17:23:48 10° SE
Cosmos 1461 2.8 17:17:43 10° NNW 17:21:42 87° SW 17:25:39 10° SSE
COSMO-SKYMED 1 3.8 17:18:56 10° NE 17:22:24 23° E 17:25:52 10° SSE
Cosmos 1544 Rocket 4.4 17:20:25 10° NNE 17:24:20 29° ENE 17:28:13 10° SE
Cosmos 1975 Rocket 3.0 17:20:14 10° S 17:24:32 77° E 17:28:51 10° N
Cosmos 372 Rocket 4.1 17:22:59 10° SSW 17:28:13 85° WNW 17:33:31 10° NNE
Okean 3 4.1 17:24:24 10° SSW 17:28:38 61° W 17:32:54 10° N
SJ-12 3.8 17:24:37 10° SSE 17:28:41 74° ENE 17:32:46 10° N
SMAP 3.0 17:24:06 10° SSE 17:28:42 67° ENE 17:33:19 10° N
AQUARIUS 4.1 17:24:22 10° SSE 17:28:48 67° ENE 17:33:17 10° N
Meteor 1-11 Rocket 4.5 17:26:19 10° NNW 17:31:45 57° W 17:37:07 10° S
MSX 4.0 17:26:28 10° SE 17:31:58 49° ENE 17:37:29 10° N
CZ-4 R/B 1.7 17:30:31 10° S 17:34:43 76° W 17:38:54 10° NNW
Cosmos 2263 Rocket 4.3 17:31:36 10° WSW 17:35:58 23° WNW 17:40:23 10° N
USA 234 4.4 17:31:37 10° NNE 17:37:23 35° NNW 17:43:08 10° W
Cosmos 1346 Rocket 4.4 17:35:33 10° SE 17:37:47 15° E 17:38:32 14° ENE
Thor Agena Rocket 3.8 17:33:08 10° N 17:38:20 77° WNW 17:43:34 10° SSW
Cosmos 1536 Rocket 4.2 17:37:05 10° SSE 17:41:04 34° E 17:45:07 10° NNE
Cosmos 1812 3.2 17:39:13 10° SSE 17:42:50 40° E 17:46:28 10° NNE
NOSS 3-3 (A) 4.4 17:41:41 10° S 17:47:21 41° ESE 17:52:24 14° NE
NOSS 3-3 (C) 4.5 17:41:48 10° S 17:47:27 40° ESE 17:52:28 14° NE
YAOGAN 1 2.7 17:43:37 10° S 17:47:56 79° WSW 17:52:17 10° NNW
OTV 4 0.3 17:50:23 10° W 17:53:23 88° SSW 17:55:03 24° ESE
Cosmos 2251 Rocket 3.8 17:49:28 10° N 17:54:36 44° ENE 17:59:38 10° SE
FALCON 9 R/B 4.2 17:25:03 10° WSW 17:55:41 67° SSE 18:01:52 18° E
SL-8 Rocket 3.9 17:49:47 10° N 17:55:58 88° E 18:02:07 10° S
Meteor 1-12 Rocket 4.5 17:50:42 10° N 17:56:17 49° ENE 18:01:56 10° SSE
Cosmos 1975 3.6 17:53:08 10° NNE 17:56:46 31° ENE 18:00:22 10° SE
ATLAS 2AS CENTAUR R/B 3.1 17:50:48 10° NNW 17:58:38 52° NE 18:05:56 10° SE
Cosmos 1844 Rocket 3.1 17:56:51 10° SSW 18:02:22 64° WNW 18:07:58 10° NNE
EP 2 4.3 18:01:55 10° SSW 18:04:31 56° ESE 18:04:56 47° ENE
SL-27 R/B 2.5 18:00:59 10° N 18:04:38 60° ENE 18:08:13 10° SSE
Cosmos 2366 rocket 3.9 17:59:10 10° N 18:05:32 76° E 18:11:50 10° S
Cosmos 2218 Rocket 4.0 17:59:41 10° N 18:06:01 88° E 18:12:14 10° S
BREEZE-M DEB (TANK) 4.3 18:08:01 10° NNW 18:08:26 10° NNW 18:08:45 10° N
Cosmos 1844 3.8 18:04:02 10° SSW 18:09:35 76° WNW 18:15:10 10° NNE
ISS -1.7 18:07:06 10° W 18:10:01 29° NNW 18:11:30 20° N
GEOS 3 Rocket 3.5 18:05:32 10° SE 18:10:33 60° NE 18:15:36 10° NNW
SKYMED 2 3.5 18:06:16 10° NNE 18:10:38 86° ESE 18:14:57 10° SSW
Cosmos 1455 Rocket 3.0 18:09:51 10° N 18:14:16 86° E 18:18:41 10° S
DMSP B5D1-3 4.4 18:09:22 10° NNE 18:14:30 68° ESE 18:19:36 10° S
SL-8 R/B 3.6 18:10:13 10° SW 18:14:57 74° SE 18:17:03 33° ENE
ATLAS 3B CENTAUR R/B 4.1 17:58:02 10° WSW 18:16:46 49° S 18:22:04 19° ESE
Cosmos 2278 Rocket 2.1 18:22:14 10° SSW 18:27:52 89° WNW 18:31:57 20° NNE
CZ-3B DEB 2.9 18:24:37 10° WSW 18:28:20 49° NNW 18:34:11 19° NE
COSMOS 2406 4.5 18:23:53 10° NW 18:29:16 43° WSW 18:34:37 10° S
Cosmos 1484 Rocket 3.4 18:25:43 10° S 18:29:26 56° W 18:33:08 10° NNW
Meteor 1-13 Rocket 4.3 18:24:23 10° S 18:29:49 54° E 18:32:59 25° NNE
Cosmos 1809 Rocket 4.3 18:31:31 10° N 18:37:41 75° E 18:43:46 10° SSE
Tiangong 1 3.2 18:37:03 10° SSW 18:38:20 19° S 18:38:20 19° S
OAO 1 4.5 18:38:40 10° WSW 18:44:09 75° S 18:45:19 55° ESE
Cosmos 2082 Rocket 3.6 18:50:28 10° N 18:52:44 23° N 18:52:44 23° N
Nadezhda 3 Rocket 4.1 18:52:11 10° SSW 18:58:20 74° W 19:04:35 10° N
Hubble Space Telescope 3.5 18:59:50 10° SW 19:01:06 11° SSW 19:02:22 10° S
Cosmos 1500 4.3 19:03:20 42° W 19:03:36 43° W 19:07:13 10° SSW
BREEZE-M R/B 4.4 18:55:28 10° WSW 19:04:38 48° NW 19:05:51 41° N
BREEZE M DEB (TANK) 4.5 19:31:53 10° NW 19:34:57 42° N 19:34:57 42° N
ATLAS 2AS CENTAUR R/B 4.3 19:42:25 10° NW 19:49:19 34° WSW 19:55:47 10° S
